Location: 22
(39.7117°N, 89.5929°W)
Time: 09:23:11
(UTC-05:00)

Transit 2A - Pass Details

Date: 04 August 2024
Orbit: 590 x 961 km, 66.7° (Epoch: 13 September)

Event Time Altitude Azimuth Distance (km) Brightness Sun altitude
Rises 05:24:39 0° 205° (SSW) 3,155 - -7.1°
Exits shadow 05:25:10 - 205° (SSW) 2,954 8.5 -7.0°
Reaches altitude 10° 05:26:54 10° 205° (SSW) 2,291 8.0 -6.7°
Maximum altitude 05:32:12 84° 118° (ESE) 834 6.3 -5.8°
Drops below altitude 10° 05:38:07 10° 30° (NNE) 2,554 9.7 -4.8°
Sets 05:40:45 0° 30° (NNE) 3,544 10.5 -4.3°
